SCP
0 0 0 0 0 0 0 0 0 0 0 0 0 0 0 0 0 0 0 0 0 0 0 0 0 0 0 0 0 0 0 0 0 0 0 0 0 0 0 0 0 0 0 0
0 0 0 0 0 0 0 0 0 0 0 0 0 0 0 0 0 0 0 0 0 0 0 0 0 0 0 0 0 0 0 0 0 0 0 0 0 0 0 0 0 0 0 0
0 0 0 0 0 0 0 0 0 0 0 0 0 0 0 0 0 0 0 0 0 0 0 0 0 0 0 0 0 0 0 0 0 0 0 0 0 0 0 0 0 0 0 0
0 0 -0 0 0 0 0 0 0 0 0 0 0 -0 0 -0 0 0 0 0 0 0 0 0 0 0 0 0 0 0 0 0 0 0 0 0 0 0 0 0 0 0 0 0
-0 -0 -0 0 0 -0 0 0 0 0 0 0 0 -0 -0 0 0 0 0 0 0 0 0 0 0 0 0 0 0 0 0 0 0 0 0 0 0 0 0 0 0 0 0 0
-0 -0 -0 -0 0 0 0 0 0 0 0 0 0 0 -0 -0 0 0 0 0 0 0 0 0 0 0 0 0 0 0 0 0 0 0 0 0 0 0 0 0 0 0 0 0
0 -0 -0 -0 0 0 0 0 -0 -0 0 -0 -0 -0 -0 0 0 0 0 0 0 0 0 0 0 0 0 0 0 0 0 0 0 0 0 0 0 0 0 0 0 0 0 0
0 0 -0 -0 -0 0 -0 -0 0 -0 -0 -0 -0 0 0 0 0 0 0 0 0 0 0 0 0 0 0 0 0 0 0 0 0 0 0 0 0 0 0 0 0 0 0 0
0 0 0 -0 -0 -0 -0 -0 -0 0 0 0 0 -0 0 0 0 0 0 0 0 0 0 0 0 0 0 0 0 0 0 0 0 0 0 0 0 0 0 0 0 0 0 0
0 0 0 0 -0 -0 -0 0 0 0 0 0 0 -0 -0 0 -0 0 0 0 0 0 0 0 0 0 0 0 0 0 0 0 0 0 0 0 0 0 0 0 0 0 0 0
0 0 0 0 0 0 0 0 0 0 0 0 0 0 0 0 0 0 0 0 0 0 0 0 0 0 0 0 0 0 0 0 0 0 0 0 0 0 0 0 -0 0 0 0
0 0 0 0 0 0 0 0 -0 0 0 0 0 0 0 0 0 0 0 0 0 0 0 0 0 0 0 0 0 0 0 0 0 0 0 0 0 0 0 0 0 0 0 0
0 0 0 -0 0 0 0 0 0 0 0 0 0 0 0 0 0 0 0 0 0 0 0 0 0 0 0 0 0 0 0 0 0 0 0 0 0 0 0 0 0 0 0 0
0 0 0 0 0 0 0 0 0 0 0 0 0 0 0 0 0 0 0 0 0 0 0 0 0 0 0 0 0 0 0 0 0 0 0 0 0 0 0 0 0 0 0 0
0 0 0 0 0 0 0 0 0 0 0 0 0 0 0 0 0 0 0 -0 0 0 0 0 0 0 0 0 0 0 0 0 0 0 0 0 0 0 0 0 0 0 0 0
0 0 0 -0 0 -0 0 0 0 0 0 0 0 0 0 0 0 0 0 0 0 0 0 0 0 0 0 0 0 0 0 0 0 0 0 0 0 0 0 0 0 0 0 0
0 0 0 -0 0 0 -0 -0 0 0 0 0 0 -0 0 0 0 0 0 0 0 0 0 0 0 0 0 0 0 0 0 0 0 0 0 0 0 0 0 0 0 0 0 0
0 0 0 0 -0 0 0 0 0 0 0 0 0 0 0 0 0 0 0 0 0 0 0 0 0 0 0 0 0 0 0 0 0 0 0 0 0 0 0 0 0 0 0 0
0 0 0 0 0 -0 -0 -0 -0 -0 0 -0 -0 0 0 -0 0 0 0 0 0 0 0 0 0 0 0 0 0 0 0 0 0 0 0 0 0 0 0 0 0 0 0 0
0 0 0 0 0 -0 0 -0 0 -0 -0 -0 -0 -0 -0 0 0 0 0 0 0 0 0 0 0 0 0 0 0 0 0 0 0 0 0 0 0 0 0 0 0 0 0 0
0 0 0 0 0 -0 -0 0 0 0 -0 -0 -0 -0 0 0 0 0 0 0 0 0 0 0 0 0 0 0 0 0 0 0 0 0 0 0 0 0 0 0 0 0 0 0
0 0 0 0 0 0 0 0 0 0 0 0 -0 -0 0 0 0 0 0 0 0 0 0 0 0 0 0 0 0 0 0 0 0 0 0 0 0 0 0 0 0 0 0 0
0 0 0 0 0 0 0 0 0 0 0 0 0 0 0 0 0 0 0 0 0 0 0 0 0 0 0 0 0 0 0 0 0 0 0 0 0 0 0 0 0 0 0 0
0 0 0 0 0 -0 -0 -0 0 0 0 0 0 0 0 0 0 0 0 0 0 0 0 -0 0 0 0 0 0 0 0 0 0 0 0 0 0 0 0 0 0 0 0 0
0 0 0 -0 -0 -0 -0 -0 0 0 0 0 0 0 0 0 0 0 0 0 -0 -0 -0 0 0 0 0 0 0 0 0 0 0 0 0 0 0 0 0 0 0 0 0 0
0 0 -0 -0 -0 0 0 -0 0 0 0 0 0 0 0 0 0 -0 -0 -0 0 0 0 0 0 0 0 0 0 0 0 0 0 0 0 0 0 0 0 0 0 0 0 0
Wind_Speed_500mb
9 7 10 8 12 19 17 17 19 15 17 24 26 38 45 56 43 35 56 57 59 57 60 41 50 56 57 58 59 58 53 52 55 55 58 58 57 51 45 43 37 34 30 28
3 8 4 4 11 11 19 25 30 26 28 23 32 42 39 48 54 62 54 49 57 56 52 47 49 55 61 62 63 64 61 58 59 58 56 57 54 49 45 39 38 36 34 33
9 7 9 15 11 14 23 27 20 15 24 34 33 57 55 53 58 61 66 67 62 54 57 53 51 59 63 66 66 66 67 65 65 61 56 55 51 46 46 45 39 34 33 23
9 7 6 9 9 13 19 13 27 24 12 14 18 25 30 42 59 56 65 66 71 64 57 53 51 61 65 68 69 65 65 68 69 66 65 62 59 54 47 40 33 34 30 29
4 6 11 16 10 9 7 11 7 16 23 19 32 18 29 37 38 43 61 71 68 72 67 61 70 71 64 55 59 67 70 70 72 73 71 66 61 51 41 39 38 36 32 32
23 16 12 21 12 11 2 8 11 14 17 24 39 31 26 33 27 27 38 61 74 74 73 67 58 67 71 67 70 71 75 75 72 73 74 71 66 61 50 45 42 38 33 33
15 11 6 20 14 12 11 8 6 11 13 20 20 30 39 20 18 12 10 22 43 58 70 69 66 82 79 75 73 77 76 76 74 70 71 71 67 62 55 48 43 40 43 43
11 5 7 13 18 7 24 25 10 14 15 17 32 22 12 3 30 31 33 39 27 33 51 60 63 74 76 72 70 66 70 75 73 69 72 76 72 67 54 48 48 48 45 40
9 10 12 17 12 13 10 22 36 23 29 12 14 39 34 18 20 17 19 19 33 22 29 41 58 63 67 64 56 53 55 62 65 67 69 70 60 46 44 30 25 17 6 8
3 16 12 5 9 22 25 6 10 14 12 17 17 32 23 6 27 34 19 24 18 16 19 34 42 50 64 61 57 49 42 47 57 61 54 52 57 52 41 3 12 10 33 34
5 9 8 7 11 16 11 10 14 9 10 16 16 15 4 3 11 19 20 16 15 15 17 19 31 40 54 56 50 48 46 52 53 56 63 66 56 32 17 12 18 19 28 28
10 6 12 24 26 11 11 29 29 16 21 21 25 35 6 7 11 17 30 22 16 15 16 19 25 31 39 47 52 54 59 61 64 69 58 44 23 15 27 15 21 27 33 28
6 6 13 14 4 3 9 12 23 33 30 35 29 33 17 15 29 30 18 17 15 16 22 27 30 36 39 42 48 56 57 61 66 55 40 34 35 33 24 28 24 28 24 22
9 13 19 21 16 7 24 29 34 23 17 28 34 51 48 51 46 51 37 18 20 17 22 33 40 39 42 46 48 51 56 53 46 45 46 42 37 35 35 28 30 28 23 16
9 12 17 32 38 35 40 44 44 32 44 31 49 42 49 42 31 41 41 24 22 27 30 32 44 53 51 53 56 59 59 60 55 47 40 35 33 33 33 27 21 17 16 11
10 18 7 23 38 42 46 48 41 44 48 39 52 52 59 51 57 48 36 28 32 32 32 37 45 54 61 59 57 55 53 51 48 43 40 37 34 34 25 24 20 17 12 10
13 9 7 23 16 29 25 32 39 37 41 39 34 54 27 29 26 23 26 34 35 36 41 42 48 53 57 59 57 55 50 47 45 43 40 38 35 32 28 22 17 12 10 9
25 16 8 16 10 14 15 13 13 22 31 35 41 44 37 34 23 16 26 36 39 42 50 50 51 55 59 62 59 54 51 47 44 40 37 33 30 27 22 16 10 9 8 6
28 17 10 8 7 31 31 12 8 15 25 28 39 27 36 49 40 42 42 35 39 47 52 54 56 61 62 58 55 53 50 44 40 37 34 32 26 19 14 10 9 8 5 8
12 22 16 6 9 12 9 2 7 5 20 11 14 27 30 30 20 21 43 44 45 50 59 61 59 54 51 51 49 46 45 41 36 34 30 24 18 14 11 10 6 3 8 13
6 9 28 21 17 19 30 27 1 6 4 18 44 49 40 27 21 13 41 49 48 55 56 56 52 48 48 48 46 43 39 35 29 25 21 16 14 12 10 6 1 5 8 9
16 12 10 9 12 23 26 8 15 4 1 29 45 37 27 41 28 29 49 55 58 59 57 52 51 48 45 41 39 37 33 29 25 21 17 15 15 12 7 2 1 1 1 3
10 15 7 20 14 27 17 31 27 20 47 31 36 19 24 31 29 48 68 67 64 62 60 51 48 46 43 40 34 30 29 26 23 21 20 18 13 8 8 9 9 8 4 3
13 21 11 3 12 38 63 73 64 58 31 24 22 12 29 28 45 60 67 68 65 62 56 53 52 50 47 42 37 32 26 24 23 22 19 16 16 17 18 17 13 9 7 9
21 17 13 25 39 45 73 70 66 56 30 32 8 7 25 26 48 59 62 60 59 59 60 58 54 47 38 30 24 19 18 19 20 23 27 27 26 23 20 16 14 13 15 17
29 19 23 17 27 9 11 11 23 20 33 23 13 3 20 32 51 53 57 59 59 58 54 49 42 35 29 25 23 23 24 25 28 31 31 29 26 24 21 20 21 22 24 26
Wind_Direction_500mb
6 228 230 253 261 291 283 257 253 265 277 322 268 257 248 247 238 236 240 238 236 229 237 231 234 225 220 218 220 224 224 220 217 216 225 222 227 228 227 227 226 230 233 234
291 281 70 310 267 274 262 260 256 269 276 277 273 269 264 259 251 244 240 237 236 237 234 230 229 224 223 223 220 222 224 219 219 218 222 227 227 230 233 230 227 227 231 238
313 9 280 318 281 250 247 255 256 286 304 271 275 277 261 257 250 247 244 243 240 238 234 228 224 228 223 222 225 224 224 221 219 219 221 224 227 227 227 230 227 232 233 229
295 326 311 315 286 244 264 251 247 264 285 264 197 275 250 231 239 238 239 237 237 235 236 230 226 227 225 226 225 225 227 226 224 218 220 224 224 225 225 226 234 237 242 242
350 272 274 273 256 205 273 324 266 252 257 293 248 260 260 242 253 242 234 236 236 235 233 230 230 229 221 228 233 230 227 227 227 224 222 223 225 227 225 224 228 233 242 243
263 281 268 247 261 223 269 279 242 255 259 250 236 229 265 235 248 258 236 239 236 233 233 231 226 230 237 246 243 240 229 228 228 227 225 224 227 227 226 226 223 236 239 240
304 234 248 226 245 198 204 201 222 209 205 244 200 213 249 282 293 258 282 270 252 238 236 236 231 237 244 246 241 235 232 228 228 225 224 226 227 231 231 226 228 234 241 240
327 311 194 175 234 276 211 208 216 234 212 258 207 231 234 324 245 257 285 269 269 249 239 238 232 235 237 235 233 235 234 231 227 224 219 219 221 225 223 223 229 241 236 238
315 265 304 232 225 225 183 215 241 289 281 264 231 245 264 262 278 265 272 276 256 266 244 238 235 233 223 218 221 224 226 227 223 220 219 217 216 215 200 174 136 81 318 295
312 289 273 305 200 235 241 357 207 207 244 246 228 244 245 228 237 249 246 262 260 274 264 244 228 221 213 214 214 213 214 220 220 210 206 191 176 168 148 122 288 290 274 284
214 233 272 299 222 255 188 218 221 287 254 265 261 241 144 4 4 321 310 317 306 277 258 242 225 208 209 212 212 208 202 201 203 181 175 170 161 174 187 162 206 230 243 249
199 291 277 265 269 283 279 254 235 236 242 239 265 265 277 187 359 334 317 320 287 256 240 217 205 198 193 193 197 192 189 189 184 170 167 170 182 188 176 152 178 211 225 219
183 253 300 290 173 162 248 273 265 261 261 253 254 259 253 298 296 304 313 306 287 248 216 197 187 182 181 180 179 181 180 177 168 171 186 188 167 171 172 186 166 177 184 189
227 233 229 257 292 316 288 283 276 278 285 279 259 265 266 272 278 288 283 263 250 228 218 190 178 174 175 171 170 168 166 164 165 166 158 158 157 165 163 162 167 171 174 191
223 251 241 256 269 273 267 266 269 252 252 256 270 272 273 271 289 283 284 239 225 215 206 190 177 167 166 164 160 158 156 153 151 151 152 155 154 156 150 156 158 170 173 189
196 261 255 282 275 264 266 265 263 259 258 249 251 267 261 278 275 267 255 230 213 202 199 188 176 167 163 160 157 155 154 155 159 161 164 168 167 164 165 170 167 173 192 213
237 254 268 283 317 314 276 251 246 250 241 231 234 239 275 270 282 269 246 229 223 203 187 187 176 168 163 160 159 158 156 155 155 154 146 150 157 158 156 172 173 188 216 239
247 243 244 287 318 251 261 299 248 257 261 235 246 254 262 266 273 257 249 225 209 196 179 178 170 162 159 154 151 152 153 151 151 152 153 153 158 160 164 168 174 205 234 273
222 239 243 253 251 290 286 270 183 208 274 247 253 277 290 275 268 263 253 231 201 190 177 169 164 162 160 159 156 158 152 152 152 153 155 162 154 152 160 173 197 218 273 323
224 225 228 149 257 262 257 190 136 87 280 143 317 293 279 260 227 233 200 197 186 179 167 165 165 166 160 154 154 155 153 153 154 159 158 154 155 164 176 194 208 293 334 346
189 213 229 231 248 267 260 244 150 250 303 315 314 287 256 222 222 286 181 181 178 169 164 160 157 159 158 156 156 157 157 155 160 164 162 164 171 180 193 204 284 15 17 0
192 182 203 200 226 260 222 122 206 217 264 318 315 306 257 197 220 171 169 170 166 164 165 162 159 160 160 160 162 162 162 167 175 179 184 188 196 198 197 138 76 66 302 317
237 211 216 208 220 253 244 257 236 303 307 309 307 321 170 181 171 166 166 167 166 167 165 163 164 164 166 169 170 175 182 189 196 199 202 207 211 203 200 209 209 214 236 302
236 222 244 314 246 248 262 266 272 284 305 317 323 263 198 196 174 166 163 166 167 169 168 164 170 178 180 182 186 188 197 207 213 217 219 217 215 220 216 215 220 234 270 293
242 166 229 259 265 268 275 271 266 268 273 317 327 197 200 182 167 165 167 166 167 171 177 181 183 185 186 190 196 210 228 239 241 235 232 229 224 217 219 231 245 263 283 299
205 216 209 226 226 235 260 308 341 243 237 256 225 122 179 183 170 169 170 171 176 183 184 187 188 190 196 209 221 231 242 246 245 242 237 232 230 231 236 250 262 275 285 292
Wind_Speed_850mb
9 7 10 8 12 19 17 17 19 15 17 24 26 38 45 56 43 35 56 57 59 57 60 41 50 56 57 58 59 58 53 52 55 55 58 58 57 51 45 43 37 34 30 28
3 8 4 4 11 11 19 25 30 26 28 23 32 42 39 48 54 62 54 49 57 56 52 47 49 55 61 62 63 64 61 58 59 58 56 57 54 49 45 39 38 36 34 33
9 7 9 15 11 14 23 27 20 15 24 34 33 57 55 53 58 61 66 67 62 54 57 53 51 59 63 66 66 66 67 65 65 61 56 55 51 46 46 45 39 34 33 23
9 7 6 9 9 13 19 13 27 24 12 14 18 25 30 42 59 56 65 66 71 64 57 53 51 61 65 68 69 65 65 68 69 66 65 62 59 54 47 40 33 34 30 29
4 6 11 16 10 9 7 11 7 16 23 19 32 18 29 37 38 43 61 71 68 72 67 61 70 71 64 55 59 67 70 70 72 73 71 66 61 51 41 39 38 36 32 32
23 16 12 21 12 11 2 8 11 14 17 24 39 31 26 33 27 27 38 61 74 74 73 67 58 67 71 67 70 71 75 75 72 73 74 71 66 61 50 45 42 38 33 33
15 11 6 20 14 12 11 8 6 11 13 20 20 30 39 20 18 12 10 22 43 58 70 69 66 82 79 75 73 77 76 76 74 70 71 71 67 62 55 48 43 40 43 43
11 5 7 13 18 7 24 25 10 14 15 17 32 22 12 3 30 31 33 39 27 33 51 60 63 74 76 72 70 66 70 75 73 69 72 76 72 67 54 48 48 48 45 40
9 10 12 17 12 13 10 22 36 23 29 12 14 39 34 18 20 17 19 19 33 22 29 41 58 63 67 64 56 53 55 62 65 67 69 70 60 46 44 30 25 17 6 8
3 16 12 5 9 22 25 6 10 14 12 17 17 32 23 6 27 34 19 24 18 16 19 34 42 50 64 61 57 49 42 47 57 61 54 52 57 52 41 3 12 10 33 34
5 9 8 7 11 16 11 10 14 9 10 16 16 15 4 3 11 19 20 16 15 15 17 19 31 40 54 56 50 48 46 52 53 56 63 66 56 32 17 12 18 19 28 28
10 6 12 24 26 11 11 29 29 16 21 21 25 35 6 7 11 17 30 22 16 15 16 19 25 31 39 47 52 54 59 61 64 69 58 44 23 15 27 15 21 27 33 28
6 6 13 14 4 3 9 12 23 33 30 35 29 33 17 15 29 30 18 17 15 16 22 27 30 36 39 42 48 56 57 61 66 55 40 34 35 33 24 28 24 28 24 22
9 13 19 21 16 7 24 29 34 23 17 28 34 51 48 51 46 51 37 18 20 17 22 33 40 39 42 46 48 51 56 53 46 45 46 42 37 35 35 28 30 28 23 16
9 12 17 32 38 35 40 44 44 32 44 31 49 42 49 42 31 41 41 24 22 27 30 32 44 53 51 53 56 59 59 60 55 47 40 35 33 33 33 27 21 17 16 11
10 18 7 23 38 42 46 48 41 44 48 39 52 52 59 51 57 48 36 28 32 32 32 37 45 54 61 59 57 55 53 51 48 43 40 37 34 34 25 24 20 17 12 10
13 9 7 23 16 29 25 32 39 37 41 39 34 54 27 29 26 23 26 34 35 36 41 42 48 53 57 59 57 55 50 47 45 43 40 38 35 32 28 22 17 12 10 9
25 16 8 16 10 14 15 13 13 22 31 35 41 44 37 34 23 16 26 36 39 42 50 50 51 55 59 62 59 54 51 47 44 40 37 33 30 27 22 16 10 9 8 6
28 17 10 8 7 31 31 12 8 15 25 28 39 27 36 49 40 42 42 35 39 47 52 54 56 61 62 58 55 53 50 44 40 37 34 32 26 19 14 10 9 8 5 8
12 22 16 6 9 12 9 2 7 5 20 11 14 27 30 30 20 21 43 44 45 50 59 61 59 54 51 51 49 46 45 41 36 34 30 24 18 14 11 10 6 3 8 13
6 9 28 21 17 19 30 27 1 6 4 18 44 49 40 27 21 13 41 49 48 55 56 56 52 48 48 48 46 43 39 35 29 25 21 16 14 12 10 6 1 5 8 9
16 12 10 9 12 23 26 8 15 4 1 29 45 37 27 41 28 29 49 55 58 59 57 52 51 48 45 41 39 37 33 29 25 21 17 15 15 12 7 2 1 1 1 3
10 15 7 20 14 27 17 31 27 20 47 31 36 19 24 31 29 48 68 67 64 62 60 51 48 46 43 40 34 30 29 26 23 21 20 18 13 8 8 9 9 8 4 3
13 21 11 3 12 38 63 73 64 58 31 24 22 12 29 28 45 60 67 68 65 62 56 53 52 50 47 42 37 32 26 24 23 22 19 16 16 17 18 17 13 9 7 9
21 17 13 25 39 45 73 70 66 56 30 32 8 7 25 26 48 59 62 60 59 59 60 58 54 47 38 30 24 19 18 19 20 23 27 27 26 23 20 16 14 13 15 17
29 19 23 17 27 9 11 11 23 20 33 23 13 3 20 32 51 53 57 59 59 58 54 49 42 35 29 25 23 23 24 25 28 31 31 29 26 24 21 20 21 22 24 26
Wind_Direction_850mb
6 228 230 253 261 291 283 257 253 265 277 322 268 257 248 247 238 236 240 238 236 229 237 231 234 225 220 218 220 224 224 220 217 216 225 222 227 228 227 227 226 230 233 234
291 281 70 310 267 274 262 260 256 269 276 277 273 269 264 259 251 244 240 237 236 237 234 230 229 224 223 223 220 222 224 219 219 218 222 227 227 230 233 230 227 227 231 238
313 9 280 318 281 250 247 255 256 286 304 271 275 277 261 257 250 247 244 243 240 238 234 228 224 228 223 222 225 224 224 221 219 219 221 224 227 227 227 230 227 232 233 229
295 326 311 315 286 244 264 251 247 264 285 264 197 275 250 231 239 238 239 237 237 235 236 230 226 227 225 226 225 225 227 226 224 218 220 224 224 225 225 226 234 237 242 242
350 272 274 273 256 205 273 324 266 252 257 293 248 260 260 242 253 242 234 236 236 235 233 230 230 229 221 228 233 230 227 227 227 224 222 223 225 227 225 224 228 233 242 243
263 281 268 247 261 223 269 279 242 255 259 250 236 229 265 235 248 258 236 239 236 233 233 231 226 230 237 246 243 240 229 228 228 227 225 224 227 227 226 226 223 236 239 240
304 234 248 226 245 198 204 201 222 209 205 244 200 213 249 282 293 258 282 270 252 238 236 236 231 237 244 246 241 235 232 228 228 225 224 226 227 231 231 226 228 234 241 240
327 311 194 175 234 276 211 208 216 234 212 258 207 231 234 324 245 257 285 269 269 249 239 238 232 235 237 235 233 235 234 231 227 224 219 219 221 225 223 223 229 241 236 238
315 265 304 232 225 225 183 215 241 289 281 264 231 245 264 262 278 265 272 276 256 266 244 238 235 233 223 218 221 224 226 227 223 220 219 217 216 215 200 174 136 81 318 295
312 289 273 305 200 235 241 357 207 207 244 246 228 244 245 228 237 249 246 262 260 274 264 244 228 221 213 214 214 213 214 220 220 210 206 191 176 168 148 122 288 290 274 284
214 233 272 299 222 255 188 218 221 287 254 265 261 241 144 4 4 321 310 317 306 277 258 242 225 208 209 212 212 208 202 201 203 181 175 170 161 174 187 162 206 230 243 249
199 291 277 265 269 283 279 254 235 236 242 239 265 265 277 187 359 334 317 320 287 256 240 217 205 198 193 193 197 192 189 189 184 170 167 170 182 188 176 152 178 211 225 219
183 253 300 290 173 162 248 273 265 261 261 253 254 259 253 298 296 304 313 306 287 248 216 197 187 182 181 180 179 181 180 177 168 171 186 188 167 171 172 186 166 177 184 189
227 233 229 257 292 316 288 283 276 278 285 279 259 265 266 272 278 288 283 263 250 228 218 190 178 174 175 171 170 168 166 164 165 166 158 158 157 165 163 162 167 171 174 191
223 251 241 256 269 273 267 266 269 252 252 256 270 272 273 271 289 283 284 239 225 215 206 190 177 167 166 164 160 158 156 153 151 151 152 155 154 156 150 156 158 170 173 189
196 261 255 282 275 264 266 265 263 259 258 249 251 267 261 278 275 267 255 230 213 202 199 188 176 167 163 160 157 155 154 155 159 161 164 168 167 164 165 170 167 173 192 213
237 254 268 283 317 314 276 251 246 250 241 231 234 239 275 270 282 269 246 229 223 203 187 187 176 168 163 160 159 158 156 155 155 154 146 150 157 158 156 172 173 188 216 239
247 243 244 287 318 251 261 299 248 257 261 235 246 254 262 266 273 257 249 225 209 196 179 178 170 162 159 154 151 152 153 151 151 152 153 153 158 160 164 168 174 205 234 273
222 239 243 253 251 290 286 270 183 208 274 247 253 277 290 275 268 263 253 231 201 190 177 169 164 162 160 159 156 158 152 152 152 153 155 162 154 152 160 173 197 218 273 323
224 225 228 149 257 262 257 190 136 87 280 143 317 293 279 260 227 233 200 197 186 179 167 165 165 166 160 154 154 155 153 153 154 159 158 154 155 164 176 194 208 293 334 346
189 213 229 231 248 267 260 244 150 250 303 315 314 287 256 222 222 286 181 181 178 169 164 160 157 159 158 156 156 157 157 155 160 164 162 164 171 180 193 204 284 15 17 0
192 182 203 200 226 260 222 122 206 217 264 318 315 306 257 197 220 171 169 170 166 164 165 162 159 160 160 160 162 162 162 167 175 179 184 188 196 198 197 138 76 66 302 317
237 211 216 208 220 253 244 257 236 303 307 309 307 321 170 181 171 166 166 167 166 167 165 163 164 164 166 169 170 175 182 189 196 199 202 207 211 203 200 209 209 214 236 302
236 222 244 314 246 248 262 266 272 284 305 317 323 263 198 196 174 166 163 166 167 169 168 164 170 178 180 182 186 188 197 207 213 217 219 217 215 220 216 215 220 234 270 293
242 166 229 259 265 268 275 271 266 268 273 317 327 197 200 182 167 165 167 166 167 171 177 181 183 185 186 190 196 210 228 239 241 235 232 229 224 217 219 231 245 263 283 299
205 216 209 226 226 235 260 308 341 243 237 256 225 122 179 183 170 169 170 171 176 183 184 187 188 190 196 209 221 231 242 246 245 242 237 232 230 231 236 250 262 275 285 292